Theta_e
322 320 319 321 322 321 321 322 322 324 324 323 323 322 322 321 319 318 318 318 318 318 319 320 320 320 321 321 322 321 321 320 320 321 321 322 324 325 325 325 325 325 325 325 325 326 328 328 327 327 327 327 327 327 327 327 327 326 326 326 326 326 326
320 321 321 322 322 322 322 322 321 322 323 323 323 322 322 321 319 317 317 317 318 319 319 320 320 321 321 321 322 322 322 322 322 322 322 322 323 324 325 325 325 325 325 325 325 326 327 327 327 327 327 327 326 327 326 326 325 325 326 326 325 326 326
321 321 322 322 322 322 323 322 321 321 322 322 323 322 322 321 319 317 317 318 318 320 320 321 321 321 322 322 322 322 322 322 322 323 323 323 323 324 324 325 324 324 324 324 325 325 326 327 326 326 326 326 326 326 325 325 324 324 325 324 323 324 325
321 321 322 323 322 322 323 322 322 322 321 321 322 322 321 320 318 316 317 318 319 321 321 322 321 321 321 322 323 323 323 323 323 323 324 324 324 324 324 324 324 323 323 324 325 325 325 326 326 326 326 325 325 325 325 325 324 323 323 322 322 322 323
320 319 321 323 322 321 322 321 322 322 321 321 321 321 320 318 316 316 317 318 319 320 321 321 321 320 320 321 322 323 323 323 324 324 324 324 324 324 324 324 324 324 324 324 325 325 325 325 325 325 325 325 325 324 324 324 323 322 322 321 320 320 321
319 318 319 322 322 321 321 321 322 322 321 321 320 319 318 316 316 317 317 318 320 320 320 320 320 319 319 319 319 321 322 323 323 324 324 324 324 324 324 323 323 323 324 325 325 324 325 325 325 325 325 325 324 323 323 323 322 321 321 320 319 318 319
320 319 319 320 321 321 321 321 321 321 321 320 319 318 317 315 316 317 318 320 320 320 320 320 320 319 318 318 318 319 320 321 321 322 323 323 324 323 323 322 321 321 322 323 324 324 324 325 325 325 325 324 324 323 322 322 321 320 320 319 318 317 317
318 319 320 321 321 321 321 320 320 320 319 318 317 316 316 316 316 317 319 321 320 320 320 320 320 320 319 318 317 318 318 318 318 319 321 322 323 323 322 321 321 320 320 321 322 323 324 324 325 324 324 324 323 322 321 320 319 319 319 318 317 317 316
315 317 319 320 320 320 320 320 319 319 318 315 314 316 316 315 316 316 319 321 320 320 321 320 320 319 319 318 317 317 317 316 316 316 319 321 322 322 321 321 320 319 319 321 322 323 323 324 324 324 324 323 322 320 318 317 317 318 318 317 317 316 315
315 317 318 319 319 319 319 319 318 317 316 313 314 317 316 316 316 315 318 320 320 320 320 319 319 319 318 318 317 317 317 317 317 315 316 319 321 321 320 320 320 319 318 320 322 322 322 322 322 323 323 324 323 321 319 317 315 316 317 316 316 316 315
313 317 319 319 319 318 317 316 316 316 314 313 316 318 316 316 317 315 318 320 319 319 319 318 318 317 317 316 316 316 315 315 315 315 315 317 318 319 319 319 319 318 317 319 320 321 321 321 321 321 322 323 324 323 321 317 314 313 314 314 314 314 314
312 316 318 319 318 317 316 316 316 315 312 313 317 318 316 316 317 316 317 319 318 318 318 318 317 317 316 316 315 315 314 313 313 314 315 315 315 316 316 316 316 316 316 316 318 320 320 319 319 320 319 321 323 323 321 318 312 310 311 311 311 311 312
312 315 317 318 318 317 317 316 316 314 312 313 317 317 316 317 316 316 316 316 317 317 317 317 316 316 315 314 313 313 312 311 312 313 313 314 314 312 312 313 313 313 314 314 316 319 319 318 318 318 317 318 321 322 320 317 312 309 309 308 308 309 310
313 315 316 318 318 317 316 316 316 315 312 313 316 317 316 316 316 316 315 315 316 316 316 316 315 315 314 312 311 311 311 310 310 310 310 310 310 309 309 310 311 312 312 312 313 315 316 315 315 314 315 318 320 320 318 315 311 309 308 308 308 308 309
313 315 316 317 317 317 316 315 316 315 313 313 315 316 315 315 315 315 315 315 316 316 315 315 314 314 312 309 308 309 308 308 308 308 308 307 307 307 307 308 309 310 311 310 310 309 309 309 310 312 316 319 319 316 315 314 311 308 307 307 308 308 308
313 315 316 316 316 316 316 316 315 314 313 312 314 315 314 313 314 315 314 315 315 314 314 313 312 311 310 307 306 306 305 305 305 305 305 305 305 305 305 306 307 309 310 309 308 306 306 307 309 314 317 318 316 314 312 311 310 308 306 306 306 307 308
312 314 315 315 316 316 315 315 313 312 311 311 314 314 312 311 313 314 314 314 313 314 313 310 307 307 306 304 303 303 302 302 301 301 301 301 302 302 303 303 304 307 309 308 306 305 304 306 310 314 315 314 313 311 309 309 308 306 305 304 305 306 306
311 312 314 314 314 314 314 313 311 311 310 311 313 313 311 311 314 314 313 313 313 312 309 305 302 302 301 300 300 300 301 300 299 299 299 299 300 300 300 301 301 304 307 307 306 305 304 304 308 311 311 310 309 308 307 306 306 305 304 303 303 304 305
311 311 312 312 312 312 312 312 312 311 310 311 311 311 311 312 313 313 313 312 311 309 305 303 302 300 299 298 299 299 300 299 298 299 298 298 298 298 299 299 299 301 304 305 305 305 304 303 304 306 308 307 307 306 305 304 303 303 302 301 301 303 304
311 311 311 311 311 311 311 311 311 310 310 310 309 309 310 311 312 312 312 311 309 307 304 303 302 301 299 299 299 299 299 298 298 298 298 297 297 297 297 297 298 298 299 302 304 305 304 303 302 303 303 303 303 303 302 302 301 301 301 300 300 300 302
311 311 311 311 311 311 310 310 310 311 310 308 308 309 309 310 310 310 311 310 310 308 305 303 302 301 300 299 299 299 298 297 298 297 297 297 297 297 297 297 297 297 297 299 302 305 304 303 303 302 302 302 302 301 301 301 301 301 300 299 299 298 299
311 311 311 311 311 310 309 309 309 311 309 305 307 310 310 310 311 310 310 310 310 308 305 303 302 302 301 300 300 300 298 297 297 297 297 297 296 296 297 296 296 296 296 297 299 302 304 303 302 302 302 303 302 302 301 301 301 301 300 299 297 296 296
311 311 311 311 311 310 309 309 309 310 308 304 306 310 309 309 311 311 310 310 309 306 303 303 302 302 302 302 301 300 298 296 296 296 296 296 296 296 296 296 296 296 295 295 296 298 300 302 302 302 302 302 302 301 300 300 299 299 299 298 296 294 294
311 311 311 310 311 310 309 309 309 310 310 306 307 310 309 307 308 308 309 308 305 302 301 302 302 302 302 302 301 300 299 297 295 296 296 296 296 296 296 296 295 295 295 295 295 295 296 298 299 299 299 300 299 298 297 296 296 296 296 296 295 294 294
313 311 311 311 311 311 310 309 309 311 311 307 306 309 309 307 306 306 307 305 302 299 299 300 301 301 302 302 301 300 300 298 296 296 295 295 296 296 295 295 295 295 294 294 294 294 295 295 295 295 295 296 295 295 295 295 294 294 294 294 294 293 293
315 312 311 311 311 311 310 309 308 310 310 305 304 306 307 305 305 305 305 304 300 298 298 299 300 301 301 302 302 300 299 298 298 296 295 295 295 295 295 295 295 295 294 294 294 294 294 294 294 294 294 295 294 294 294 294 294 294 293 293 293 293 293
318 315 312 311 311 311 310 309 307 308 307 303 302 304 304 304 304 304 305 304 301 298 298 298 299 300 301 302 302 300 299 299 299 298 296 295 295 295 295 294 295 295 294 294 294 294 294 294 294 294 294 294 294 294 294 293 293 293 293 293 293 293 293
320 319 314 311 311 311 310 309 308 307 305 302 300 302 302 303 303 302 304 304 301 298 298 298 298 299 300 301 301 300 299 299 299 299 298 297 296 295 295 294 295 294 294 294 294 294 294 294 294 294 294 294 294 293 293 293 292 292 292 292 292 292 292
321 321 318 313 311 311 310 309 308 307 305 301 301 302 302 302 302 302 303 303 300 299 299 298 298 297 298 299 300 300 300 300 300 299 298 297 296 296 296 295 294 294 294 294 294 294 294 294 294 294 294 293 293 293 292 292 292 292 292 292 292 292 292
321 322 320 316 313 311 310 310 309 308 305 302 301 301 301 302 302 302 302 302 300 299 298 298 298 297 297 298 299 299 300 300 299 298 297 296 296 296 296 295 294 294 294 293 294 294 294 294 294 294 293 293 292 292 292 292 292 292 292 292 291 292 292
322 322 321 319 316 313 311 311 310 309 307 304 301 301 301 301 302 301 301 301 300 299 299 298 298 298 297 297 297 298 298 298 298 297 296 295 295 295 295 295 294 293 294 293 293 294 294 294 295 294 293 292 292 292 292 293 293 293 293 292 292 291 291
322 322 322 321 319 316 313 311 311 310 308 306 303 301 301 301 302 302 301 301 301 300 299 299 298 298 297 297 296 296 296 297 297 297 296 295 295 295 295 294 294 293 293 293 293 293 293 294 295 295 294 293 293 293 293 293 293 294 293 293 293 292 291
322 322 322 322 321 319 316 313 312 311 309 307 305 303 301 301 301 302 301 301 301 300 299 299 298 298 298 297 297 297 296 296 297 298 297 296 295 295 294 294 294 293 293 293 293 293 293 293 293 295 295 294 293 294 294 294 294 294 294 294 293 293 292
322 322 322 322 322 320 318 316 314 312 310 308 306 305 303 301 301 301 301 301 301 300 300 299 299 298 298 297 297 297 297 297 298 299 299 298 296 295 294 294 294 293 293 293 293 293 293 293 293 294 295 295 294 293 294 295 295 295 295 294 294 293 292
322 322 322 322 322 321 320 318 316 314 312 310 307 306 304 302 301 301 301 301 301 300 300 299 299 298 298 297 297 297 297 297 298 298 299 299 298 295 294 294 294 293 293 293 293 293 292 292 293 292 294 294 293 292 293 295 295 295 295 294 294 293 292
322 322 322 322 322 322 320 319 317 315 313 312 309 307 305 303 301 301 301 301 301 301 300 300 299 298 298 297 297 297 297 297 297 298 298 299 299 297 295 294 293 293 293 293 292 293 292 292 293 292 292 293 292 292 293 295 296 295 295 294 294 293 291
321 321 322 322 322 322 321 319 318 317 315 313 311 309 306 304 302 301 302 302 302 301 301 300 300 299 298 297 297 297 297 297 297 298 298 298 299 298 297 296 294 293 293 293 293 293 292 292 292 293 292 292 292 292 294 295 295 295 294 294 294 293 291
Wind_Speed
7 6 6 6 6 5 5 6 5 4 3 4 3 3 4 4 5 5 5 5 5 5 4 4 4 4 4 3 3 3 3 3 3 2 3 4 5 5 5 4 4 4 4 4 5 6 9 12 10 8 8 7 7 8 7 6 5 5 5 4 3 2 2
8 5 5 4 5 5 5 6 6 5 4 4 4 4 4 4 5 5 4 4 4 5 4 4 4 3 3 3 3 3 3 3 2 2 2 4 5 5 5 4 4 4 4 4 4 5 8 11 11 10 9 9 9 10 8 6 5 4 4 5 4 3 2
7 5 5 4 4 4 5 7 6 5 5 4 4 4 4 5 5 5 4 4 4 4 4 4 4 3 3 2 3 3 3 3 3 2 2 4 5 6 6 6 6 6 6 6 6 6 7 9 11 11 10 9 12 13 9 6 5 4 4 5 5 4 3
8 6 7 7 6 6 7 8 7 6 5 5 4 4 5 5 4 4 4 3 3 4 4 3 3 3 3 3 2 2 2 2 2 2 2 3 4 5 6 5 6 7 7 7 7 7 7 8 11 12 11 10 12 13 11 7 5 4 6 6 6 6 5
11 8 9 9 8 9 9 9 9 8 7 6 6 6 6 5 4 4 4 2 1 2 2 2 2 3 3 3 2 1 1 0 0 1 2 3 3 4 5 5 6 6 6 6 6 6 6 7 9 11 13 12 13 14 11 7 4 6 7 7 7 7 6
12 11 11 11 11 11 11 11 11 10 9 9 8 7 7 5 3 4 4 3 2 1 1 1 1 2 2 1 1 1 1 1 2 2 3 3 4 4 4 4 5 6 6 6 6 5 7 7 8 11 13 11 13 15 12 7 5 5 7 7 8 8 8
13 13 14 13 13 13 13 13 13 11 9 9 9 8 8 4 2 3 4 3 2 1 1 1 0 1 1 1 1 1 2 1 2 3 4 4 5 4 4 4 4 5 6 6 6 6 7 8 9 11 14 14 14 14 12 10 6 5 6 6 8 9 9
14 15 14 13 13 13 14 14 14 13 10 9 9 9 8 3 0 2 4 3 2 1 1 2 2 1 1 2 2 1 1 0 1 3 5 6 5 4 4 4 5 5 6 6 7 8 8 9 10 10 13 16 17 14 12 11 8 7 6 4 6 8 9
14 14 14 13 12 12 13 13 13 12 10 9 9 10 8 4 1 1 3 3 2 2 2 2 3 3 2 2 2 2 2 1 1 2 6 8 7 5 5 5 5 4 5 6 8 9 9 10 10 9 9 11 14 16 15 12 9 8 6 4 6 7 7
12 13 13 13 13 12 11 12 12 11 9 8 10 10 7 5 1 1 2 3 3 3 3 3 3 3 3 4 4 4 4 3 3 2 6 9 9 7 6 6 5 4 5 6 7 8 9 9 10 9 8 8 9 12 15 13 11 9 7 5 6 6 5
12 12 12 13 13 12 10 10 10 10 8 7 11 10 7 5 2 1 2 4 5 4 4 4 4 3 4 6 6 6 4 3 3 4 6 8 9 9 8 7 6 4 4 6 7 7 8 8 8 8 8 7 7 7 10 13 13 11 9 7 6 5 4
11 11 12 12 11 10 10 9 9 8 6 9 12 10 7 5 3 1 3 6 6 5 5 5 4 4 5 6 6 6 3 2 5 5 5 6 7 7 8 8 6 5 5 6 8 9 8 7 7 6 6 7 7 6 7 10 15 14 10 7 7 5 3
11 10 11 11 11 11 11 11 10 7 4 10 12 10 8 5 4 3 4 7 7 6 6 5 5 5 6 5 5 5 3 4 5 4 4 4 4 5 6 7 7 7 6 7 9 10 9 8 6 5 4 5 8 7 6 8 14 16 12 9 9 9 7
10 10 10 11 12 13 13 12 11 9 6 11 12 10 9 6 5 5 5 6 6 5 6 6 6 5 5 5 4 3 2 2 3 3 2 2 2 3 5 7 8 8 7 7 7 8 9 8 6 4 4 7 9 8 5 6 12 17 15 10 9 11 10
10 10 11 12 14 14 14 14 13 12 9 11 12 12 9 7 7 8 7 7 7 7 7 7 7 6 4 4 4 3 2 1 1 2 2 2 2 4 4 6 7 8 7 6 5 5 5 6 5 6 8 10 10 9 5 4 9 14 15 12 9 9 9
10 10 12 13 14 15 15 16 16 15 12 11 13 13 9 7 9 9 8 8 8 7 8 8 8 6 4 3 3 3 3 3 2 2 2 3 4 4 4 5 7 8 7 6 4 4 5 5 6 9 11 11 10 9 6 3 4 9 12 13 10 8 8
9 10 12 14 15 15 16 16 16 15 11 11 13 12 9 8 11 10 9 8 8 8 8 8 8 7 5 3 2 2 2 3 3 3 4 4 5 5 5 5 7 8 7 6 4 4 5 7 9 12 13 12 10 9 8 5 4 5 9 12 11 8 7
9 10 12 14 15 16 16 14 13 12 10 10 12 11 9 11 12 11 9 8 8 9 8 7 7 7 6 4 2 0 1 2 3 4 5 5 5 5 5 6 7 8 7 6 5 4 5 7 10 13 13 12 10 9 8 7 5 5 7 9 11 10 8
10 10 12 13 14 15 15 13 12 11 8 9 12 11 11 12 11 10 10 9 9 8 6 5 5 5 5 3 1 1 2 3 5 5 6 7 7 6 6 7 8 8 8 7 7 6 5 6 8 11 12 11 10 9 8 7 6 6 6 8 10 11 9
12 11 11 12 13 13 14 13 12 11 7 8 12 14 13 11 10 10 11 10 8 7 5 4 4 4 4 2 1 2 3 4 5 6 7 7 7 7 7 7 7 8 8 8 9 8 6 6 6 8 9 8 7 7 6 6 5 5 5 6 8 10 10
14 12 12 12 12 12 13 13 11 10 7 8 14 15 14 12 11 11 11 10 8 7 7 6 4 3 3 2 1 3 4 4 4 5 6 7 6 6 6 6 6 7 7 8 10 9 8 7 6 6 6 5 4 2 2 3 2 2 2 3 6 9 10
16 14 13 13 13 13 12 12 10 9 7 9 16 16 13 12 11 11 12 11 10 9 8 7 5 3 2 1 1 3 4 5 4 4 5 5 5 5 5 5 6 7 7 8 9 10 9 8 6 6 6 4 2 0 0 1 1 1 0 1 4 7 9
18 17 15 14 14 13 12 12 11 9 8 10 16 16 13 12 12 13 13 12 11 10 9 8 7 5 3 2 1 1 4 5 5 4 3 3 4 4 4 5 6 7 7 8 8 8 9 9 7 7 6 5 3 2 2 2 2 2 2 1 3 6 7
20 19 16 15 15 14 13 13 12 10 10 11 14 15 14 13 13 12 12 12 11 10 9 9 8 6 5 4 3 1 3 4 5 4 3 2 2 3 4 5 6 7 7 7 8 8 8 8 7 6 6 5 4 2 2 1 1 1 1 1 4 5 6
22 20 18 17 16 16 15 14 13 12 13 14 15 15 14 14 12 10 9 9 10 9 9 9 9 8 7 6 4 3 2 4 5 4 3 3 2 3 4 5 5 6 6 6 7 7 7 7 6 5 4 3 2 1 1 1 2 3 3 3 4 6 6
24 22 20 18 17 17 16 16 15 14 14 15 17 16 15 14 13 10 8 8 8 8 9 9 10 9 8 7 6 4 3 3 4 5 5 4 2 3 4 4 4 3 4 5 5 5 5 5 5 5 4 3 3 3 3 4 4 5 5 4 3 5 6
24 23 21 20 19 19 18 17 17 15 15 17 19 17 16 15 13 12 9 8 9 9 9 9 10 10 10 9 7 6 4 3 2 4 5 4 3 2 3 3 2 2 3 4 4 3 3 4 4 4 4 4 4 5 5 6 6 7 7 6 4 4 6
25 24 23 22 21 20 19 18 18 17 16 17 19 18 17 16 14 12 11 10 10 10 9 9 10 10 11 10 9 7 6 5 4 2 2 3 3 2 2 3 2 2 2 3 3 3 2 2 3 4 4 5 6 6 7 8 8 9 8 8 7 7 8
27 25 25 24 22 21 21 19 18 18 17 17 18 19 18 17 15 13 11 11 11 11 10 10 10 11 11 11 10 9 8 7 7 5 3 3 2 2 2 3 2 2 2 2 2 2 2 2 3 4 4 5 6 7 8 9 9 10 9 9 8 8 8
29 26 26 26 25 23 22 20 19 19 18 18 19 19 19 18 16 13 12 12 12 12 11 11 11 11 12 12 11 11 10 9 9 8 5 4 3 2 2 2 2 1 2 2 2 2 2 1 2 3 4 5 6 7 9 10 10 10 10 10 9 8 8
31 28 27 26 26 24 22 21 20 19 19 19 20 20 19 18 17 15 12 12 13 12 12 12 11 11 12 12 12 12 11 11 10 9 7 5 4 4 4 3 3 3 2 1 2 2 2 1 3 4 4 4 6 7 8 9 9 9 9 9 9 9 8
32 30 28 27 26 25 23 22 21 19 19 19 19 20 21 19 18 16 13 12 13 13 13 13 12 12 12 12 13 12 12 11 10 8 7 6 6 6 6 6 5 4 3 2 1 1 1 2 4 5 4 4 5 6 7 7 8 8 7 8 9 9 8
34 32 29 27 26 25 24 23 22 21 19 19 19 20 22 21 19 18 15 14 14 14 14 14 13 13 13 12 12 12 12 11 9 8 7 6 7 8 8 8 7 6 5 3 1 0 1 1 2 3 4 5 5 5 5 5 5 5 5 6 8 9 9
36 33 30 28 26 26 26 24 23 22 20 20 20 21 23 23 21 20 18 16 15 15 15 15 14 14 14 13 13 13 12 10 9 8 7 6 7 8 9 8 7 7 6 5 3 2 1 1 1 0 3 4 4 3 3 3 3 3 3 4 6 8 9
37 35 32 30 28 28 27 26 25 24 22 21 21 22 23 24 23 22 20 18 16 16 16 16 16 15 15 15 14 14 13 11 10 9 8 6 6 8 9 9 8 7 7 6 5 4 3 2 2 2 2 3 3 3 3 3 2 2 2 3 5 5 6
37 37 35 34 32 31 30 28 27 26 25 24 23 22 24 25 25 24 23 21 19 17 17 17 17 17 16 16 16 15 14 13 11 10 8 6 5 7 9 10 9 9 8 8 7 5 5 4 4 3 3 3 4 4 6 6 4 3 2 3 3 3 4
36 37 38 37 36 34 33 31 29 28 28 27 25 24 24 25 26 26 25 24 22 19 18 18 18 18 18 18 18 17 16 15 13 11 10 8 6 6 7 8 9 9 9 9 8 7 6 5 5 4 4 4 4 5 6 7 6 4 2 2 2 2 3
Wind_Direction
224 231 218 226 263 284 280 268 263 264 282 308 328 340 337 332 337 345 349 352 354 354 350 338 320 308 306 307 304 293 282 273 264 257 241 227 226 229 231 236 238 238 226 201 194 180 147 124 110 100 94 92 90 86 85 89 84 74 73 69 59 51 23
217 222 220 241 270 280 274 266 265 262 268 293 307 313 313 315 325 333 342 349 352 355 353 346 335 323 316 306 296 289 275 264 252 234 210 199 203 206 209 221 229 232 230 212 207 203 168 146 139 132 124 121 111 104 106 108 96 78 77 70 49 40 30
213 214 215 222 238 246 256 261 262 258 257 275 287 293 296 299 310 319 328 341 352 4 7 5 5 357 340 320 301 290 276 264 249 237 215 189 188 193 196 204 212 214 215 212 209 205 186 161 149 144 146 146 129 120 119 110 96 83 71 60 53 55 55
210 214 209 208 218 228 243 257 259 252 253 266 271 275 283 286 295 306 310 325 355 12 16 13 17 17 14 13 359 338 313 286 254 238 214 179 176 185 188 188 197 204 210 209 206 204 194 170 155 147 147 151 139 129 125 111 88 75 67 56 60 72 75
210 219 217 220 233 240 246 255 260 262 267 276 281 276 272 274 287 293 281 269 307 7 7 5 12 20 21 18 9 358 356 345 220 218 212 181 170 178 178 174 179 185 191 189 182 182 174 167 167 152 144 146 136 125 122 117 94 73 66 51 51 61 67
209 218 224 231 243 251 255 255 259 266 270 275 280 273 262 267 292 284 255 233 222 259 331 346 9 27 24 12 327 271 231 162 149 180 200 188 178 180 173 166 168 169 171 166 160 163 156 157 167 153 147 151 139 128 125 120 105 81 63 43 39 47 51
211 219 225 234 243 251 255 254 258 263 265 271 274 262 253 261 308 270 228 207 213 234 274 281 317 35 23 11 341 273 255 209 173 187 191 187 181 178 164 156 158 155 155 157 162 170 160 161 176 166 152 144 135 133 130 122 113 92 72 44 36 44 46
216 224 229 237 246 252 254 254 258 260 261 270 263 245 240 231 19 265 222 202 204 171 230 272 295 318 340 354 356 320 292 320 134 187 190 188 182 176 169 168 168 151 139 150 167 175 171 169 176 178 167 151 138 133 126 120 116 101 87 62 50 44 39
217 228 235 241 250 253 253 257 262 262 269 274 248 226 224 201 123 296 236 216 205 183 210 252 279 294 318 337 334 322 307 320 355 193 187 189 187 184 186 187 185 163 142 153 169 170 170 170 167 169 184 180 158 140 125 114 113 115 116 111 86 56 27
221 229 237 246 255 256 256 262 266 269 279 264 223 210 214 200 157 334 259 223 205 198 212 221 247 280 300 307 304 300 296 292 285 230 185 188 189 187 190 190 187 174 155 162 173 169 167 170 167 161 177 202 192 162 140 125 120 127 132 124 110 87 40
227 230 239 247 252 253 257 259 262 276 279 227 203 206 211 200 193 326 242 212 206 209 221 225 236 266 292 300 297 296 300 285 248 217 182 180 185 188 192 192 194 194 182 182 186 180 176 179 180 173 172 184 204 206 176 148 131 126 130 122 110 98 68
231 238 244 246 246 246 248 246 251 274 261 198 196 207 207 205 215 218 216 219 219 225 234 243 255 274 294 297 295 292 282 196 205 205 181 171 174 186 194 191 195 201 198 200 197 191 188 192 192 185 177 174 185 211 204 161 134 125 129 124 110 98 83
230 242 245 243 245 244 245 245 251 273 241 190 195 204 200 209 220 207 223 230 226 228 239 255 272 290 296 285 277 276 244 174 189 204 193 176 158 174 191 186 184 187 188 196 199 199 203 208 210 205 189 172 172 178 188 166 138 128 128 125 116 110 104
228 241 246 247 249 247 251 252 257 276 244 196 196 199 195 205 223 222 229 234 231 239 254 270 283 297 293 263 244 252 239 155 171 191 192 188 145 150 178 181 179 182 190 198 196 200 213 220 219 206 181 166 163 166 181 173 144 134 134 136 129 120 116
230 239 248 253 252 251 255 256 261 274 255 210 201 205 204 208 224 229 228 231 237 250 266 280 289 295 276 240 227 227 226 196 182 175 163 180 160 144 162 179 180 182 193 205 197 185 196 211 197 163 159 165 161 158 172 179 151 143 143 146 148 141 136
230 239 248 255 254 251 254 257 262 268 255 218 204 213 220 210 210 220 224 227 232 245 266 279 282 280 263 234 228 220 216 222 218 194 181 183 171 153 153 171 178 181 192 205 198 166 155 162 156 145 150 161 159 151 155 171 157 154 152 150 154 160 157
230 240 250 256 257 256 257 258 262 260 243 213 208 219 222 196 194 211 222 224 232 247 265 271 264 264 268 265 246 225 213 214 204 191 184 181 174 163 157 162 166 172 190 205 193 160 146 146 147 146 149 154 157 152 153 159 160 166 165 158 155 159 163
226 239 251 257 262 264 264 262 260 251 225 207 213 215 197 185 194 213 223 231 249 263 268 260 246 250 263 271 277 323 129 162 161 156 158 158 158 156 155 154 152 157 179 200 188 160 145 148 153 154 153 153 156 156 158 166 171 175 177 169 159 154 154
221 233 249 258 265 268 268 266 260 246 219 207 211 198 181 188 204 218 230 245 264 279 281 257 247 252 258 268 307 34 96 122 131 132 134 134 133 132 137 141 138 142 161 181 181 167 152 150 158 163 164 163 165 167 169 171 173 175 179 176 166 160 157
221 228 243 255 263 266 266 264 255 241 224 209 204 192 186 197 208 218 237 256 272 290 296 277 271 272 260 263 356 76 110 119 124 126 125 123 123 124 127 132 133 136 150 167 173 171 163 159 160 162 164 167 172 178 180 174 170 175 180 175 171 170 169
224 226 239 249 256 258 257 256 242 231 232 211 199 198 197 203 213 223 239 256 271 286 289 281 282 286 268 252 106 110 124 126 126 130 128 121 118 121 125 131 136 138 144 157 167 170 167 165 167 161 155 159 167 177 181 176 180 192 176 167 174 178 179
227 226 235 244 251 253 252 250 237 231 239 206 195 205 212 212 221 231 237 250 266 275 273 265 266 272 269 259 121 122 135 137 132 131 133 125 120 121 127 134 137 136 137 145 161 171 169 166 170 166 157 163 188 264 311 283 288 281 324 118 157 168 174
231 228 232 240 249 252 251 249 239 235 241 209 196 209 224 223 228 235 241 252 261 261 254 248 250 252 252 260 267 144 151 154 147 137 129 123 122 122 127 130 126 126 131 137 148 163 168 170 176 173 169 180 212 257 281 297 311 310 319 41 136 149 159
234 232 232 238 246 250 250 250 243 238 246 232 210 215 228 232 234 237 241 249 249 244 239 236 240 245 242 245 258 235 168 168 163 151 137 126 126 125 122 121 118 120 125 130 136 144 153 161 168 172 176 187 203 226 260 296 349 9 5 112 137 145 162
237 235 234 236 244 249 250 251 246 242 248 241 225 223 231 236 239 238 236 237 237 233 230 229 234 239 237 235 248 258 210 186 178 171 172 170 152 127 116 112 112 117 123 126 128 132 136 139 141 145 149 153 154 136 86 72 77 83 85 101 132 148 163
238 238 236 236 241 246 250 251 248 245 247 240 229 229 234 237 243 246 237 232 233 229 226 226 229 235 234 232 242 253 242 205 184 180 189 196 177 134 119 116 110 110 118 119 116 119 127 129 126 124 121 117 111 98 88 84 85 90 88 83 109 141 147
239 241 239 236 238 244 248 250 249 247 244 237 230 232 236 240 246 249 243 236 233 229 226 225 226 229 233 234 237 244 252 251 210 178 184 198 198 157 136 136 126 114 117 111 100 99 109 116 115 110 108 108 100 92 91 90 89 91 95 96 107 126 130
241 242 241 238 237 240 246 248 247 245 243 236 231 234 238 241 247 251 248 240 232 229 230 228 225 225 229 232 233 233 244 259 256 228 195 201 208 182 171 182 165 122 114 104 92 90 93 97 98 92 89 91 91 91 95 98 98 99 103 108 112 117 123
241 242 242 240 237 238 243 246 244 244 243 236 230 232 236 240 245 250 250 241 230 228 231 231 229 226 225 228 230 231 239 251 254 252 242 219 205 172 171 192 181 132 113 105 99 104 109 100 90 83 82 88 93 100 103 103 104 105 105 105 106 109 116
242 242 243 242 239 238 241 244 243 243 243 237 230 230 235 240 244 248 250 241 229 228 232 232 232 230 226 225 227 231 239 248 250 249 246 234 216 188 176 196 202 175 125 111 108 122 141 132 93 91 95 100 107 112 111 107 106 104 101 100 97 98 105
243 243 245 244 242 240 240 243 243 243 245 241 234 233 237 240 244 247 247 240 230 227 232 235 234 233 230 225 225 231 240 246 246 246 241 232 220 206 198 202 206 205 182 127 107 119 133 115 102 105 104 106 116 121 118 112 109 104 100 99 95 92 96
244 245 247 247 245 242 241 243 243 243 246 246 239 236 237 240 244 247 245 239 232 227 228 233 236 236 234 229 227 231 237 239 236 235 230 221 213 205 199 199 204 205 200 191 124 106 105 91 100 108 109 108 121 131 127 121 116 107 99 96 93 88 84
245 247 249 248 247 245 242 242 242 242 244 245 241 237 238 240 243 246 245 240 235 231 228 231 235 237 236 234 234 235 237 236 231 229 228 222 213 206 204 204 204 202 200 203 220 250 49 66 86 101 111 121 128 134 137 138 131 114 95 84 84 82 75
247 248 250 250 249 246 243 241 241 241 242 243 241 238 239 241 242 244 245 242 237 234 231 230 233 236 237 237 239 242 243 240 234 231 235 235 222 210 208 210 209 204 202 204 210 225 267 275 271 99 133 147 155 157 164 171 154 127 102 76 70 71 68
249 249 249 249 248 246 243 242 242 241 241 242 242 240 240 241 241 242 243 243 239 235 232 231 231 233 236 237 239 243 246 244 238 234 237 245 237 216 207 208 211 209 208 209 209 214 232 242 248 251 201 185 194 210 210 205 189 155 114 70 51 54 62
249 249 249 247 247 246 243 240 240 240 240 240 241 242 242 241 240 241 242 242 240 236 233 232 231 230 233 236 239 242 244 244 243 242 242 244 240 225 212 207 209 210 210 213 215 217 226 233 238 241 228 214 213 214 210 207 205 195 135 74 50 44 65
248 250 250 247 246 244 242 240 238 239 240 239 239 241 243 242 240 240 241 242 241 238 234 232 232 230 230 233 237 240 242 242 243 245 246 241 232 224 216 209 209 212 214 217 221 223 227 231 234 235 233 229 225 214 207 208 212 208 175 104 79 64 87